Lake Charles Regional, LA

8:56 PM CST on November 20, 2017 (GMT -0600)
Lake Charles Regional

Weather History for KLCH - June, 2013

Change the Weather History Date:

Thursday, June 6, 2013

  Actual Average Record
Temperature  
Mean Temperature 79 °F 80 °F  
Max Temperature 89 °F 88 °F 98 °F (1917)
Min Temperature 68 °F 71 °F 59 °F (1946)
Degree Days  
Heating Degree Days 0 0  
Month to date heating degree days 0 0  
Since 1 June heating degree days 0 0  
Since 1 July heating degree days 1267 1490  
Cooling Degree Days 14 15  
Month to date cooling degree days 103 87  
Year to date cooling degree days 588 625  
Since 1 June cooling degree days 103 87  
Growing Degree Days 29 (Base 50)    
Moisture  
Dew Point 71 °F    
Average Humidity 80    
Maximum Humidity 97    
Minimum Humidity 63    
Precipitation  
Precipitation 0.88 in 0.20 in 2.86 in (1912)
Month to date precipitation 1.47 1.19  
Year to date precipitation 30.99 22.07  
Snow  
Snow 0.00 in 0.00 in 0.00 in ()
Month to date snowfall 0.0 0.0  
Since 1 June snowfall 0.0 0.0  
Since 1 July snowfall 0.0 0.1  
Snow Depth 0.00 in    
Sea Level Pressure  
Sea Level Pressure 29.84 in    
Wind  
Wind Speed 3 mph (NE)    
Max Wind Speed 31 mph    
Max Gust Speed 43 mph    
Visibility 9 miles    
Events Rain , Thunderstorm    
T = Trace of Precipitation, MM = Missing Value Source: NWS Daily Summary

Daily Weather History Graph

Daily Weather History Graph

Search for Another Location

Airport or City:

Trip Planner

Search our weather history database for the weather conditions in past years. The results will help you decide how hot, cold, wet, or windy it might be!

Date:

Astronomy

Jun. 06, 2013 Rise Set
Actual Time 6:11 AM CDT 8:12 PM CDT
Civil Twilight 5:43 AM CDT 8:39 PM CDT
Nautical Twilight 5:10 AM CDT 9:12 PM CDT
Astronomical Twilight 4:35 AM CDT 9:48 PM CDT
Moon 4:46 AM CDT (6/6) 6:40 PM CDT (6/6)
Length of Visible Light 14h 55m
Length of Day
14h 01m
Waning Crescent, 3% of the Moon is Illuminated
Jun 6
Waning Crescent
Jun 8
New
Jun 16
First Quarter
Jun 23
Full
Jun 29
Last Quarter

Hourly Weather History & Observations

Time (CDT) Temp. Heat Index Dew Point Humidity Pressure Visibility Wind Dir Wind Speed Gust Speed Precip Events Conditions
12:53 AM 80.1 °F 85.4 °F 75.9 °F 87% 29.86 in 10.0 mi Calm Calm - N/A   Overcast
1:53 AM 81.0 °F 87.3 °F 75.9 °F 85% 29.85 in 10.0 mi Calm Calm - N/A   Overcast
2:53 AM 79.0 °F - 75.9 °F 90% 29.84 in 10.0 mi Calm Calm - N/A   Overcast
3:53 AM 78.1 °F - 75.9 °F 93% 29.83 in 10.0 mi Calm Calm - N/A   Mostly Cloudy
4:53 AM 77.0 °F - 75.0 °F 94% 29.82 in 9.0 mi Calm Calm - N/A   Clear
5:53 AM 77.0 °F - 73.9 °F 90% 29.84 in 10.0 mi Calm Calm - N/A   Partly Cloudy
6:53 AM 75.9 °F - 73.9 °F 94% 29.83 in 10.0 mi Calm Calm - N/A   Clear
7:26 AM 78.8 °F - 75.2 °F 89% 29.81 in 10.0 mi Calm Calm - N/A   Mostly Cloudy
7:53 AM 81.0 °F 87.3 °F 75.9 °F 85% 29.86 in 10.0 mi Calm Calm - N/A   Overcast
8:53 AM 84.0 °F 91.2 °F 73.9 °F 72% 29.88 in 10.0 mi Variable 3.5 mph - N/A   Clear
9:53 AM 86.0 °F 93.0 °F 73.0 °F 65% 29.87 in 10.0 mi Calm Calm - N/A   Partly Cloudy
10:21 AM 84.2 °F 92.3 °F 75.2 °F 74% 29.85 in 10.0 mi NW 5.8 mph - N/A   Mostly Cloudy
10:53 AM 81.0 °F 86.2 °F 73.9 °F 79% 29.88 in 10.0 mi South 5.8 mph - N/A   Mostly Cloudy
11:16 AM 82.4 °F 89.5 °F 75.2 °F 79% 29.86 in 10.0 mi Variable 3.5 mph - 0.00 in Rain Light Rain
11:53 AM 87.1 °F 96.3 °F 75.0 °F 67% 29.87 in 10.0 mi SSE 5.8 mph - 0.00 in   Clear
12:53 PM 88.0 °F 95.6 °F 73.0 °F 61% 29.86 in 10.0 mi South 4.6 mph - N/A   Mostly Cloudy
1:05 PM 87.8 °F 95.6 °F 73.4 °F 62% 29.83 in 10.0 mi SW 3.5 mph - N/A   Overcast
1:25 PM 82.4 °F 86.3 °F 69.8 °F 66% 29.83 in 10.0 mi NNW 23.0 mph 33.4 mph N/A Thunderstorm Overcast
1:42 PM 75.2 °F - 68.0 °F 78% 29.83 in 10.0 mi North 13.8 mph 20.7 mph N/A Thunderstorm Thunderstorm
1:53 PM 75.9 °F - 68.0 °F 76% 29.86 in 10.0 mi NW 12.7 mph 21.9 mph N/A Thunderstorm Thunderstorm
2:07 PM 73.4 °F - 69.8 °F 88% 29.83 in 1.5 mi NW 8.1 mph 20.7 mph 0.04 in Rain , Thunderstorm Heavy Thunderstorms and Rain
2:22 PM 73.4 °F - 69.8 °F 88% 29.82 in 3.0 mi East 6.9 mph - 0.39 in Rain , Thunderstorm Light Thunderstorms and Rain
2:36 PM 73.4 °F - 69.8 °F 88% 29.82 in 10.0 mi ENE 10.4 mph - 0.40 in Rain , Thunderstorm Light Rain
2:46 PM 73.4 °F - 69.8 °F 88% 29.83 in 10.0 mi East 6.9 mph - 0.40 in   Scattered Clouds
2:53 PM 73.0 °F - 69.1 °F 87% 29.85 in 10.0 mi ENE 5.8 mph - 0.40 in   Partly Cloudy
3:53 PM 80.1 °F 83.2 °F 70.0 °F 71% 29.83 in 10.0 mi NE 3.5 mph - N/A   Clear
4:53 PM 78.1 °F - 70.0 °F 76% 29.78 in 10.0 mi SE 10.4 mph - 0.00 in Rain Light Rain
5:53 PM 82.0 °F 86.3 °F 71.1 °F 69% 29.75 in 10.0 mi SSW 4.6 mph - 0.00 in   Clear
6:53 PM 81.0 °F 85.8 °F 73.0 °F 77% 29.81 in 10.0 mi NW 5.8 mph - N/A   Clear
7:16 PM 77.0 °F - 69.8 °F 78% 29.84 in 10.0 mi NNW 18.4 mph 26.5 mph N/A Thunderstorm Mostly Cloudy
7:31 PM 71.6 °F - 68.0 °F 88% 29.87 in 0.8 mi NW 25.3 mph 42.6 mph 0.06 in Rain , Thunderstorm Heavy Thunderstorms and Rain
7:40 PM 69.8 °F - 66.2 °F 88% 29.84 in 1.0 mi North 10.4 mph 36.8 mph 0.27 in Rain , Thunderstorm Heavy Thunderstorms and Rain
7:43 PM 69.8 °F - 66.2 °F 88% 29.83 in 3.0 mi NNW 8.1 mph - 0.28 in Rain , Thunderstorm Heavy Thunderstorms and Rain
7:53 PM 69.1 °F - 66.0 °F 90% 29.86 in 10.0 mi Variable 3.5 mph - 0.29 in Rain , Thunderstorm Light Thunderstorms and Rain
8:16 PM 69.8 °F - 68.0 °F 94% 29.84 in 8.0 mi Calm Calm - 0.01 in Rain Light Rain
8:29 PM 69.8 °F - 66.2 °F 88% 29.84 in 8.0 mi South 3.5 mph - 0.03 in Rain , Thunderstorm Light Thunderstorms and Rain
8:44 PM 69.8 °F - 68.0 °F 94% 29.82 in 10.0 mi North 3.5 mph - 0.04 in Rain Light Rain
8:53 PM 71.1 °F - 68.0 °F 90% 29.85 in 9.0 mi North 5.8 mph - 0.05 in Rain Rain
9:06 PM 71.6 °F - 68.0 °F 88% 29.84 in 10.0 mi Calm Calm - 0.02 in Rain , Thunderstorm Light Rain
9:29 PM 71.6 °F - 68.0 °F 88% 29.83 in 9.0 mi SE 10.4 mph - 0.06 in Rain , Thunderstorm Light Rain
9:53 PM 69.1 °F - 68.0 °F 96% 29.87 in 9.0 mi South 4.6 mph - 0.11 in Rain Rain
10:00 PM 69.8 °F - 66.2 °F 88% 29.85 in 9.0 mi South 6.9 mph - 0.02 in Rain , Thunderstorm Thunderstorms and Rain
10:15 PM 69.8 °F - 66.2 °F 88% 29.85 in 10.0 mi SSE 5.8 mph - 0.03 in Rain Light Rain
10:53 PM 70.0 °F - 68.0 °F 93% 29.90 in 10.0 mi Calm Calm - 0.03 in   Scattered Clouds
11:08 PM 69.8 °F - 68.0 °F 94% 29.88 in 10.0 mi Calm Calm - N/A   Overcast
11:30 PM 71.6 °F - 69.8 °F 94% 29.88 in 10.0 mi Calm Calm - N/A   Overcast
11:53 PM 71.1 °F - 68.0 °F 90% 29.89 in 10.0 mi Calm Calm - N/A   Mostly Cloudy